Regional Weather Roundup
Issued by NWS

Home | Current Version | Previous Version | Graphics & Text | Print | Product List | Glossary On
Versions: 1 2 3 4 5 6 7 8 9 10 11 12 13 14 15 16 17 18 19 20 21 22 23 24 25 26 27 28
000
ASUS45 KBOU 261210
RWRCO

WEATHER ROUNDUP FOR COLORADO
NATIONAL WEATHER SERVICE DENVER/BOULDER CO
600 AM MDT SAT MAY 26 2018

NOTE: "FAIR" INDICATES FEW OR NO CLOUDS BELOW 12000 FEET WITH NO
SIGNIFICANT WEATHER AND/OR OBSTRUCTIONS TO VISIBILITY.

COZ001>005-013-030-031-261300-
...NORTHWEST COLORADO...

CITY           SKY/WX    TMP DP  RH WIND       PRES   REMARKS
CRAIG          FAIR      34  29  82 SW3       30.03R
HAYDEN         FAIR      45  31  58 E16       30.07R
MEEKER         FAIR      37  26  64 NE3       30.06R
RANGELY        FAIR      41  24  50 E5        29.95R
RABBIT EARS PA FAIR      48  10  21 S7        30.33S
STEAMBOAT SPGS FAIR      38  32  79 CALM      30.10R
WALDEN         FAIR      34  27  75 CALM      30.19R
$$

COZ006>008-011-261300-
...WEST CENTRAL VALLEYS...

CITY           SKY/WX    TMP DP  RH WIND       PRES   REMARKS
GRAND JUNCTION FAIR      56  17  21 SE9       29.94R
MONTROSE       FAIR      57  13  17 E13       30.06R
EAGLE          FAIR      38  19  46 E7        30.16R
RIFLE          FAIR      46  21  37 W6        30.03R
DELTA          FAIR      54  12  18 NE7       30.02S
NUCLA          FAIR      59   7  12 SE7       30.11R
$$

COZ017>023-064>068-261300-
...SOUTHWEST COLORADO...

CITY           SKY/WX    TMP DP  RH WIND       PRES   REMARKS
DURANGO        FAIR      36  16  44 NE3       30.14S
CORTEZ         FAIR      45  15  30 NE13      30.09S
PAGOSA SPRINGS FAIR      39   6  25 CALM      30.21S
TELLURIDE      FAIR      47  11  23 SE6       30.27F
WOLF CREEK PAS FAIR      37   3  23 SW16      30.48R
$$

COZ009-010-012-014-032>034-037-058>063-261300-
...CENTRAL COLORADO...

CITY           SKY/WX    TMP DP  RH WIND       PRES   REMARKS
ASPEN          FAIR      39  23  52 S3        30.17R
BUENA VISTA    FAIR      42  23  46 NW3       30.21R
COPPER MTN     FAIR      52   3  14 S8        30.45R
BERTHOUD PASS  FAIR      43  32  65 W15       30.47S
COTTONWOOD PAS FAIR      57  -2   9 W7        30.31S
GUNNISON       FAIR      33  20  58 CALM      30.24R
GRANBY         FAIR      35  29  80 SE3       30.22S
KREMMLING      FAIR      37  30  75 CALM      30.20R
LEADVILLE      FAIR      30  18  60 CALM      30.30R
MONARCH PASS   FAIR      45   0  15 MISG      30.55S
SALIDA         FAIR      49  22  34 NW3       30.25S
SUNLIGHT       FAIR      43   9  24 SW16G24   30.36S
WILKERSON PASS FAIR      46  23  39 W10       30.40F
$$

COZ069>075-261300-
...SAN LUIS VALLEY/SANGRE DE CRISTO MOUNTAINS...

CITY           SKY/WX    TMP DP  RH WIND       PRES   REMARKS
ALAMOSA        FAIR      38  22  52 CALM      30.18R
DEL NORTE      FAIR      44  10  25 W12       30.21R
LA VETA PASS   FAIR      52   9  17 S25G35    30.44S
SAGUACHE       NOT AVBL
$$

COZ035-036-038>040-261300-
...NORTHERN COLORADO FRONT RANGE...

CITY           SKY/WX    TMP DP  RH WIND       PRES   REMARKS
DENVER INTL AP FAIR      56  46  69 SW7       29.96R
AURORA         NOT AVBL
FRONT RANGE AP FAIR      62  48  61 S9G16     29.97S
ERIE MUNI ARPT FAIR      46  42  86 CALM      30.00S
BOULDER MUN AP FAIR      54  41  62 NW3       29.96R
CENTENNIAL     FAIR      56  46  69 SE3       29.99R
BROOMFIELD     CLEAR     59  37  44 W3        29.98R
FORT COLLINS   FAIR      52  47  83 N6        29.94F
LONGMONT       FAIR      51  44  77 W5        29.97R
$$

COZ041-046-047-076>085-087-088-261300-
...PIKES PEAK/PALMER DIVIDE AND SOUTHERN FOOTHILLS...

CITY           SKY/WX    TMP DP  RH WIND       PRES   REMARKS
COLO. SPRINGS  FAIR      50  44  80 N9        30.05R
A. F. ACADEMY  FAIR      45  41  87 N8        30.06R
SCHRIEVER AFB  NOT AVBL
CHEYENNE MTN   NOT AVBL
ELLICOTT         N/A    N/A N/A N/A SE5       30.02S
FALCON         FAIR      52  44  73 N3        30.09S
FORT CARSON    NOT AVBL
LIMON          FAIR      50  48  93 CALM      30.00R
MONUMENT HILL  FAIR      50  43  76 S10       30.09S
CANON CITY     CLEAR     61  41  48 S6        29.99S
WALSENBURG     FAIR      61  12  15 W6        30.04R
TRINIDAD       FAIR      54  31  41 MISG      30.02R
$$

COZ042>045-048>051-090-091-261300-
...NORTHEAST COLORADO...

CITY           SKY/WX    TMP DP  RH WIND       PRES   REMARKS
GREELEY ARPT   FAIR      52  47  83 W6        29.93S
AKRON          FAIR      64  55  72 S14       29.94R
BURLINGTON     FAIR      62  61  96 SW9       29.95R
WRAY           FAIR      59  54  82 SW6       29.91S
YUMA           FAIR      55  54  94 S7        29.91S
STERLING       FAIR      52  50  93 CALM      29.91R
HOLYOKE        FAIR      61  52  72 S5        29.91S
FORT MORGAN    FAIR      56  46  68 CALM      29.94S
$$

COZ086-089-092>099-261300-
...SOUTHEAST COLORADO...

CITY           SKY/WX    TMP DP  RH WIND       PRES   REMARKS
PUEBLO         FAIR      56  44  64 SW3       29.95R
LA JUNTA       FAIR      62  53  72 E6        29.92R
LAMAR          FAIR      60  57  89 MISG      29.90R
SPRINGFIELD      N/A     52  52 100 SW6       29.95R
$$




USA.gov is the U.S. government's official web portal to all federal, state and local government web resources and services.